Wind_Speed
12 12 12 12 13 13 14 14 13 13 14 14 14 14 13 12 12 12 12 11 11 10 10 9 8 8 7 7 8 8 7 7 7 7 6 6 6 6 6 6 6 6 5
12 11 11 11 12 12 11 12 12 13 13 13 13 12 12 12 11 11 11 11 10 10 9 8 8 8 7 7 8 7 7 7 7 7 6 6 6 6 6 6 6 5 5
11 10 10 10 10 10 11 11 11 12 12 12 12 12 11 11 11 11 11 10 10 9 9 8 8 7 7 7 7 8 7 8 7 7 7 6 6 6 6 6 6 6 6
10 9 9 9 9 9 10 10 11 11 11 11 11 11 11 11 10 10 10 10 9 9 8 7 7 7 7 7 7 7 8 8 7 7 7 6 6 6 6 6 6 6 6
9 9 9 9 9 9 10 10 10 10 10 10 10 10 10 10 9 9 9 9 8 7 7 6 6 6 7 7 7 7 8 8 7 7 7 6 6 6 6 6 6 6 6
8 8 8 8 9 9 9 9 9 9 9 9 9 10 10 9 9 8 7 7 7 7 6 6 6 6 7 7 7 8 8 7 7 7 6 6 6 6 6 5 6 6 6
7 8 8 8 8 9 9 9 9 9 9 9 9 9 9 9 9 8 7 8 7 7 6 6 6 6 6 7 7 7 7 7 7 7 7 6 6 6 5 5 6 6 5
7 6 7 7 8 8 8 8 8 8 9 8 8 8 8 9 9 9 8 8 7 7 6 6 6 6 7 7 7 7 7 7 6 6 6 6 6 5 5 5 5 5 5
7 6 5 6 7 7 7 7 7 7 8 8 7 7 7 7 7 8 8 7 7 6 6 6 6 6 6 7 7 6 6 6 6 5 5 5 5 5 5 5 5 5 5
6 5 5 5 6 6 6 6 7 6 7 7 6 6 7 6 6 6 7 6 6 6 6 5 6 6 6 5 5 6 5 5 5 5 4 4 4 4 4 4 4 4 5
5 4 4 4 5 5 5 5 6 6 6 6 6 6 6 6 5 5 5 6 6 6 6 5 5 5 5 4 4 5 4 4 4 4 4 4 4 4 4 5 5 4 4
5 4 3 3 4 4 4 4 5 5 5 6 6 6 6 6 5 4 4 4 5 5 5 5 4 4 4 4 4 4 4 3 4 3 3 3 3 3 4 4 4 4 3
5 4 3 3 3 3 3 3 4 4 5 5 5 5 5 5 5 4 4 4 4 4 4 4 4 4 3 3 3 3 3 3 3 2 2 2 2 2 3 3 3 3 3
4 3 3 3 2 2 2 2 3 3 4 4 4 3 3 3 3 3 3 3 3 3 3 4 3 3 3 3 3 3 2 2 2 1 1 2 2 2 2 2 2 2 2
4 3 2 2 1 1 1 1 1 1 2 2 3 3 2 2 2 3 3 2 2 2 3 3 3 2 2 2 1 1 1 1 1 1 1 1 1 1 1 1 1 1 1
4 3 2 1 0 1 1 2 2 2 1 2 2 2 2 2 2 3 3 3 3 2 2 2 2 2 2 1 1 1 1 0 0 0 0 1 1 0 0 1 1 0 0
4 3 2 2 2 2 2 3 3 2 2 2 2 2 3 3 3 3 3 3 3 3 3 2 3 3 2 2 2 2 2 1 1 1 1 1 1 1 1 1 2 2 2
4 4 4 4 4 3 3 3 4 4 4 3 3 3 3 3 3 3 4 4 4 4 4 3 4 4 4 3 3 3 3 2 2 2 2 2 2 2 2 2 3 3 3
5 5 5 5 5 4 4 4 5 6 5 5 4 4 4 4 5 5 5 6 5 5 5 5 5 5 4 4 4 4 3 3 3 3 3 3 3 3 3 3 4 4 4
6 5 6 6 6 5 5 5 6 7 7 7 6 6 5 5 6 6 6 6 6 6 7 6 6 6 6 6 6 5 4 4 4 4 5 5 5 4 4 5 5 5 5
6 6 6 6 6 6 5 5 6 7 7 7 7 7 6 6 6 7 7 7 7 7 7 7 7 7 7 6 6 6 6 6 6 6 6 6 6 6 6 6 6 7 7
7 7 6 6 5 6 5 5 6 7 8 8 8 8 8 8 7 8 8 8 7 7 7 8 8 9 8 7 7 7 7 7 7 8 8 8 8 8 8 8 8 8 8
8 8 8 6 5 6 6 6 7 7 8 9 9 9 10 9 9 9 9 9 9 8 9 9 9 9 9 9 9 9 9 9 9 9 9 9 9 10 10 10 10 10 10
10 10 8 6 6 6 7 8 8 8 8 9 10 10 10 10 10 10 10 10 11 10 10 10 10 11 11 11 11 11 10 10 10 10 11 11 11 11 11 12 12 12 12
11 10 9 7 7 8 9 10 9 9 9 9 10 11 11 11 11 11 12 11 11 11 11 11 12 12 12 12 12 12 12 12 12 12 12 12 12 12 13 13 13 13 13
11 11 10 9 9 10 10 10 10 10 10 11 11 11 11 11 12 12 13 13 13 12 12 12 12 12 12 13 14 14 14 14 14 14 13 14 14 14 14 14 14 15 15
Wind_Direction
91 91 90 90 95 97 96 98 101 104 106 106 105 104 105 105 105 104 103 102 100 99 100 99 98 93 90 91 92 93 91 87 86 86 87 88 88 93 102 106 106 104 101
96 93 91 94 97 97 98 98 101 103 104 106 105 104 104 104 105 105 104 103 101 102 102 99 97 93 95 97 96 94 91 86 85 84 85 88 90 95 99 103 102 104 103
93 92 91 92 95 96 99 101 103 102 103 103 104 105 104 104 103 103 105 103 102 102 101 99 99 94 97 98 94 92 91 87 86 85 86 86 89 93 96 98 100 102 101
88 92 92 95 97 100 104 104 101 103 104 104 105 106 105 106 106 104 105 106 103 104 104 102 99 95 94 97 94 93 92 88 87 87 84 83 87 91 92 96 101 105 106
85 90 95 99 102 105 108 109 107 105 103 106 107 108 107 105 106 108 108 107 104 106 105 101 98 94 96 98 97 95 94 92 89 86 82 81 84 88 89 95 101 104 104
86 89 99 106 109 110 109 112 113 111 106 106 107 107 108 107 105 107 111 108 104 104 104 100 99 99 96 101 99 97 96 92 88 83 82 83 82 85 91 97 99 101 102
87 92 103 110 113 113 114 115 116 115 111 109 109 106 105 107 108 109 111 110 104 100 100 102 98 97 101 110 105 102 97 91 87 82 82 82 82 84 92 100 100 99 101
88 96 103 109 113 115 118 120 121 120 116 115 114 110 108 107 106 107 108 105 105 104 100 102 99 98 100 107 108 105 99 93 86 82 81 80 83 87 96 99 98 99 102
84 89 104 113 114 115 117 122 124 125 123 121 118 114 111 114 108 112 108 105 105 106 106 104 105 106 104 105 104 106 104 97 89 86 83 78 79 87 101 101 98 96 98
76 82 102 117 120 117 118 122 126 129 129 130 128 122 119 118 116 111 112 109 111 112 112 113 110 110 107 106 104 104 104 94 92 93 85 78 80 87 100 101 97 97 95
70 77 105 118 124 123 122 125 128 133 136 134 132 127 123 123 122 116 111 107 111 112 114 116 113 112 110 112 110 106 103 98 98 95 84 78 81 87 96 97 90 96 92
67 71 98 117 126 123 122 128 132 135 136 138 135 133 132 130 128 128 122 110 111 113 114 116 115 119 120 113 114 109 104 104 104 92 84 77 74 81 95 99 96 97 94
62 67 87 113 119 125 124 125 127 131 136 142 144 144 141 139 138 139 128 119 114 113 113 121 123 124 125 117 118 118 106 105 99 84 76 72 64 72 89 98 97 95 93
54 65 82 103 116 130 137 129 124 135 141 146 151 155 152 152 158 149 134 122 122 122 121 131 133 132 134 134 124 120 113 109 102 79 63 69 66 80 93 97 92 96 89
44 53 73 100 120 153 180 186 172 160 160 167 171 174 165 157 168 168 165 148 140 145 144 143 150 158 163 163 150 135 138 130 106 59 46 53 65 83 92 78 97 105 74
28 26 35 72 137 224 248 237 227 219 203 199 194 194 198 198 192 196 186 188 181 174 172 168 180 191 208 215 215 198 184 178 74 44 359 340 314 294 273 264 225 254 321
9 359 345 319 295 265 256 247 233 229 223 220 222 215 213 217 224 223 212 209 203 202 208 208 208 213 222 232 240 238 245 252 267 269 264 287 286 276 280 271 258 269 277
351 336 321 310 305 277 258 257 241 235 231 232 234 235 235 238 245 247 248 238 225 224 220 223 226 230 234 239 249 249 249 256 271 275 274 279 276 264 266 274 274 282 285
341 332 324 312 310 303 278 260 251 242 238 238 236 239 250 256 256 255 264 258 243 238 235 236 239 240 237 244 253 248 250 259 271 277 279 282 278 266 268 272 276 286 296
333 330 325 317 315 308 304 264 249 246 243 241 241 243 250 256 261 264 269 263 253 247 247 247 245 246 246 247 250 247 254 262 263 268 275 278 282 281 276 274 278 284 290
326 328 325 319 315 313 307 275 254 250 247 249 251 256 255 255 262 268 272 268 255 252 253 255 254 254 252 255 254 252 256 259 262 265 269 273 278 281 281 278 279 283 283
311 320 319 313 306 309 310 288 264 258 257 259 260 263 264 259 260 269 272 272 268 263 262 265 263 262 256 258 255 254 258 261 265 266 269 270 273 276 277 278 280 281 281
303 311 314 313 293 296 298 286 273 268 264 267 260 262 260 261 264 269 272 274 273 268 264 264 263 261 260 260 256 256 258 259 263 267 268 268 271 272 274 276 279 283 284
296 304 307 301 297 294 291 282 276 275 272 270 264 262 260 262 266 270 272 277 277 271 267 268 265 261 262 263 262 259 258 259 264 267 269 270 272 273 273 275 277 278 280
291 297 298 297 295 295 291 282 273 274 276 273 270 267 266 265 268 272 274 278 279 274 270 267 267 266 264 263 264 262 260 261 263 266 268 270 271 272 274 275 277 277 278
285 291 293 291 292 296 293 289 279 275 273 270 269 269 270 271 272 273 276 279 283 281 277 272 268 268 265 265 266 266 265 263 266 266 267 269 271 273 275 275 276 277 276
Height
5894 5894 5894 5894 5894 5894 5894 5894 5894 5894 5894 5894 5895 5895 5896 5896 5897 5897 5897 5898 5898 5898 5898 5899 5899 5899 5899 5899 5899 5899 5900 5899 5899 5899 5899 5898 5898 5898 5898 5898 5898 5897 5897
5896 5896 5896 5896 5896 5896 5896 5896 5896 5896 5896 5896 5896 5897 5897 5898 5898 5898 5899 5899 5899 5900 5900 5900 5900 5900 5900 5901 5901 5901 5901 5901 5901 5900 5900 5900 5899 5899 5899 5899 5899 5899 5898
5898 5898 5898 5898 5898 5898 5898 5898 5898 5898 5898 5898 5898 5899 5899 5899 5899 5900 5900 5901 5901 5901 5901 5901 5902 5902 5902 5902 5902 5902 5902 5902 5902 5902 5901 5901 5900 5900 5900 5900 5900 5900 5900
5900 5900 5900 5900 5900 5900 5900 5900 5899 5899 5900 5900 5900 5900 5900 5900 5901 5901 5902 5902 5902 5902 5903 5903 5903 5903 5903 5903 5903 5903 5903 5903 5903 5903 5903 5902 5902 5901 5901 5901 5901 5901 5901
5902 5902 5902 5902 5902 5902 5902 5902 5901 5901 5901 5901 5901 5901 5901 5902 5902 5903 5903 5903 5903 5904 5904 5904 5904 5904 5904 5904 5905 5905 5904 5904 5904 5904 5904 5903 5903 5903 5903 5902 5902 5902 5902
5904 5904 5904 5904 5904 5904 5903 5903 5903 5903 5903 5903 5903 5903 5903 5903 5903 5904 5904 5904 5904 5905 5905 5905 5905 5905 5905 5906 5906 5906 5906 5906 5906 5905 5905 5904 5904 5904 5904 5904 5903 5903 5903
5905 5905 5905 5905 5905 5905 5905 5905 5905 5905 5904 5904 5904 5904 5904 5905 5905 5905 5905 5905 5906 5906 5906 5906 5906 5906 5906 5907 5907 5907 5907 5907 5907 5906 5906 5906 5905 5905 5905 5905 5905 5904 5904
5907 5906 5906 5906 5906 5906 5906 5906 5906 5906 5905 5906 5905 5905 5906 5906 5906 5906 5906 5907 5907 5907 5907 5907 5907 5907 5907 5908 5908 5908 5908 5908 5908 5907 5907 5907 5906 5906 5906 5906 5906 5906 5906
5908 5908 5907 5907 5907 5907 5907 5907 5907 5907 5907 5907 5907 5907 5907 5907 5908 5908 5908 5908 5908 5908 5908 5908 5908 5908 5909 5909 5909 5909 5909 5909 5909 5909 5908 5908 5908 5907 5907 5907 5906 5906 5906
5909 5909 5908 5908 5908 5908 5908 5907 5907 5908 5908 5908 5908 5908 5908 5908 5909 5909 5908 5909 5909 5909 5909 5909 5909 5909 5910 5910 5910 5910 5910 5910 5910 5910 5909 5909 5909 5908 5908 5907 5907 5907 5907
5910 5910 5909 5909 5909 5909 5908 5908 5908 5908 5908 5908 5908 5909 5909 5909 5909 5909 5910 5910 5910 5910 5910 5910 5910 5910 5910 5911 5911 5911 5911 5911 5910 5910 5910 5910 5910 5909 5909 5908 5908 5908 5908
5911 5911 5910 5910 5910 5910 5909 5909 5909 5909 5909 5909 5909 5910 5910 5910 5910 5910 5910 5910 5911 5911 5911 5911 5911 5911 5911 5911 5912 5912 5912 5911 5911 5911 5911 5911 5910 5910 5910 5909 5909 5909 5909
5912 5912 5911 5911 5911 5911 5911 5910 5910 5910 5910 5910 5910 5910 5910 5910 5910 5910 5911 5911 5911 5911 5911 5911 5911 5912 5912 5912 5912 5912 5912 5912 5912 5912 5911 5911 5911 5911 5910 5910 5910 5909 5909
5913 5912 5912 5912 5912 5912 5912 5911 5911 5911 5911 5911 5911 5911 5911 5911 5911 5911 5911 5911 5911 5911 5911 5912 5912 5912 5912 5912 5913 5913 5913 5913 5913 5912 5912 5912 5911 5911 5911 5910 5910 5910 5910
5914 5913 5913 5913 5912 5912 5912 5912 5911 5911 5911 5911 5912 5912 5912 5912 5912 5912 5912 5912 5912 5912 5912 5912 5912 5913 5913 5913 5913 5913 5913 5913 5913 5912 5912 5912 5912 5911 5911 5911 5910 5910 5910
5914 5914 5913 5913 5912 5912 5912 5912 5912 5912 5912 5912 5912 5912 5912 5912 5912 5912 5912 5912 5912 5912 5912 5912 5913 5913 5913 5913 5913 5913 5913 5913 5913 5913 5912 5912 5911 5911 5911 5911 5910 5910 5910
5914 5914 5913 5912 5912 5912 5912 5912 5912 5912 5912 5912 5912 5912 5912 5912 5913 5913 5913 5912 5912 5912 5912 5912 5912 5913 5913 5913 5913 5913 5913 5913 5913 5913 5912 5912 5911 5911 5911 5911 5911 5910 5910
5914 5914 5913 5912 5912 5911 5911 5911 5911 5912 5912 5912 5912 5912 5912 5912 5912 5913 5912 5912 5912 5912 5912 5912 5912 5912 5913 5913 5913 5913 5913 5913 5912 5912 5912 5912 5911 5911 5911 5911 5910 5910 5910
5914 5913 5912 5912 5911 5911 5910 5910 5911 5911 5911 5911 5911 5911 5912 5912 5912 5912 5912 5911 5911 5911 5911 5911 5912 5912 5912 5912 5912 5912 5912 5912 5912 5912 5912 5911 5911 5911 5910 5910 5910 5909 5909
5913 5912 5912 5911 5910 5910 5909 5909 5909 5910 5910 5910 5910 5910 5911 5911 5910 5910 5910 5910 5910 5910 5911 5911 5911 5911 5911 5911 5911 5911 5911 5911 5911 5911 5911 5911 5910 5910 5910 5909 5909 5909 5909
5912 5911 5911 5910 5909 5909 5908 5908 5908 5908 5909 5909 5909 5909 5909 5909 5909 5909 5909 5909 5909 5909 5909 5910 5910 5910 5910 5910 5910 5910 5910 5910 5910 5910 5910 5910 5910 5909 5909 5909 5908 5908 5908
5911 5910 5909 5909 5908 5907 5907 5907 5907 5907 5907 5907 5907 5908 5908 5908 5908 5908 5908 5908 5908 5908 5908 5908 5908 5908 5908 5909 5909 5909 5909 5910 5909 5909 5909 5909 5909 5908 5908 5907 5907 5907 5906
5910 5909 5908 5907 5906 5906 5906 5906 5905 5905 5905 5905 5906 5906 5906 5906 5906 5906 5906 5906 5906 5906 5906 5906 5906 5907 5907 5907 5907 5907 5907 5907 5907 5907 5907 5907 5907 5906 5906 5906 5905 5905 5904
5909 5908 5907 5906 5905 5905 5905 5904 5904 5904 5903 5903 5903 5904 5904 5904 5905 5904 5904 5904 5904 5904 5904 5904 5904 5904 5905 5905 5905 5905 5905 5905 5905 5905 5905 5905 5905 5904 5904 5904 5903 5903 5902
5907 5906 5905 5905 5904 5904 5903 5903 5902 5902 5901 5901 5901 5902 5902 5902 5903 5903 5902 5902 5902 5902 5902 5902 5902 5902 5902 5902 5902 5903 5903 5903 5902 5903 5903 5902 5902 5902 5901 5901 5901 5900 5900
5905 5904 5904 5903 5902 5902 5901 5900 5900 5899 5899 5899 5899 5899 5899 5900 5900 5901 5900 5900 5900 5899 5899 5899 5899 5899 5899 5899 5900 5900 5900 5900 5900 5900 5899 5899 5899 5899 5898 5898 5897 5897 5896